CW4884 Weather Reports


Display with metric or nautical units.
time (UTC)temp
F
wind
direction
speed
MPH
gust
MPH
rain 1hr
in
rain 24hr
in
rain mn
in
humidity
%
barometer
mb
20260505024521 57 67 5.0 0.0 0.00 0.00 0.00 42 1008.0
20260505023114 58 47 4.0 0.0 0.00 0.00 0.00 41 1007.8
20260505021555 58 26 5.0 0.0 0.00 0.00 0.00 40 1007.5
20260505020058 59 325 2.0 0.0 0.00 0.00 0.00 40 1007.2
20260505014536 60 66 4.0 0.0 0.00 0.00 0.00 39 1007.0
20260505013036 61 64 4.0 0.0 0.00 0.00 0.00 38 1006.8
20260505011527 63 22 4.0 0.0 0.00 0.00 0.00 36 1006.7
20260505010019 63 29 5.0 0.0 0.00 0.00 0.00 36 1006.5
20260505004520 63 65 2.0 0.0 0.00 0.00 0.00 37 1006.5
20260505003008 63 63 3.0 0.0 0.00 0.00 0.00 38 1006.6
20260505001507 63 78 3.0 0.0 0.00 0.00 0.00 37 1006.5
20260505000011 64 67 5.0 0.0 0.00 0.00 0.00 38 1006.3
20260504234507 65 32 4.0 0.0 0.00 0.00 0.00 39 1006.1
20260504233006 66 18 3.0 0.0 0.00 0.00 0.00 38 1006.0
20260504231516 66 74 4.0 0.0 0.00 0.00 0.00 36 1005.9
20260504230049 66 74 3.0 0.0 0.00 0.00 0.00 37 1005.8
20260504224536 67 134 4.0 0.0 0.00 0.00 0.00 35 1005.9
20260504223035 67 43 4.0 0.0 0.00 0.00 0.00 36 1005.9
20260504221552 67 98 4.0 0.0 0.00 0.00 0.00 35 1005.8
20260504220030 67 147 3.0 0.0 0.00 0.00 0.00 38 1005.9
20260504214530 65 38 2.0 0.0 0.00 0.00 0.00 38 1005.9
20260504213029 65 148 4.0 0.0 0.00 0.00 0.00 35 1006.0
20260504211544 66 127 4.0 0.0 0.00 0.00 0.00 36 1006.1
20260504210054 67 163 4.0 0.0 0.00 0.00 0.00 35 1006.1
20260504204622 67 230 4.0 0.0 0.00 0.00 0.00 35 1006.1
20260504203042 67 175 4.0 0.0 0.00 0.00 0.00 40 1006.3
20260504201540 66 72 3.0 0.0 0.00 0.00 0.00 38 1006.4
20260504200041 66 89 4.0 0.0 0.00 0.00 0.00 36 1006.4
20260504194547 66 65 4.0 0.0 0.00 0.00 0.00 36 1006.5
20260504193036 66 136 3.0 0.0 0.00 0.00 0.00 38 1006.5
20260504191533 64 66 3.0 0.0 0.00 0.00 0.00 41 1006.7
20260504190009 64 83 2.0 0.0 0.00 0.00 0.00 40 1006.9
20260504184608 63 54 2.0 0.0 0.00 0.00 0.00 40 1007.1
20260504183102 63 46 3.0 0.0 0.00 0.00 0.00 39 1007.1
20260504181556 63 88 4.0 0.0 0.00 0.00 0.00 39 1007.1
20260504180100 62 59 5.0 0.0 0.00 0.00 0.00 41 1007.3
20260504174505 62 75 5.0 0.0 0.00 0.00 0.00 40 1007.4
20260504173002 62 69 4.0 0.0 0.00 0.00 0.00 40 1007.5
20260504171503 61 71 3.0 0.0 0.00 0.00 0.00 40 1007.7
20260504081558 52 16 2.0 0.0 0.00 0.00 0.00 58 1005.6
20260504050018 55 23 0.0 0.0 0.00 0.00 0.00 55 1005.2
20260504044538 56 24 0.0 0.0 0.00 0.00 0.00 53 1005.1
20260504043028 56 344 0.0 0.0 0.00 0.00 0.00 53 1005.0
20260504041529 57 344 1.0 0.0 0.00 0.00 0.00 52 1005.0
20260504040051 58 260 0.0 0.0 0.00 0.00 0.00 51 1004.9
20260504034605 58 259 0.0 0.0 0.00 0.00 0.00 50 1004.6
20260504033053 59 259 0.0 0.0 0.00 0.00 0.00 51 1004.4
20260504031601 60 259 0.0 0.0 0.00 0.00 0.00 49 1004.2
20260504030058 63 259 0.0 0.0 0.00 0.00 0.00 46 1004.0